Location: Saint-Palais-sur-Mer
(45.6429°N, 1.0859°W)
Time: 00:04:55
(UTC+01:00)

Vanguard 1 - Pass Details

Date: 14 February 2026
Orbit: 653 x 3818 km, 34.2° (Epoch: 12 March)

Event Time Altitude Azimuth Distance (km) Brightness Sun altitude
Rises 00:04:43 0° 281° (W) 7,494 14.9 -53.9°
Reaches altitude 10° 00:10:34 10° 272° (W) 6,724 14.5 -54.4°
Enters shadow 00:24:42 28° 235° (SW) 5,464 13.6 -55.5°
